Time,TemperatureF,DewpointF,PressureIn,WindDirection,WindDirectionDegrees,WindSpeedMPH,WindSpeedGustMPH,Humidity,HourlyPrecipIn,Conditions,Clouds,dailyrainin,SoftwareType,DateUTC
2013-01-22 00:00:00,20.7,14.3,29.78,North,0,0.0,0.0,76,0.00,,,0.00,pywws,2013-01-22 05:00:00,
2013-01-22 00:01:00,20.7,14.3,29.78,North,0,0.0,0.0,76,0.00,,,0.00,pywws,2013-01-22 05:01:00,
2013-01-22 00:05:00,20.5,14.1,29.77,North,0,0.0,0.0,76,0.00,,,0.00,pywws,2013-01-22 05:05:00,
2013-01-22 00:11:00,20.7,14.3,29.77,North,0,0.0,0.0,76,0.00,,,0.00,pywws,2013-01-22 05:11:00,
2013-01-22 00:17:00,20.8,14.5,29.75,North,0,0.0,0.0,76,0.00,,,0.00,pywws,2013-01-22 05:17:00,
2013-01-22 00:22:00,20.8,14.5,29.76,West,270,0.0,0.0,76,0.00,,,0.00,pywws,2013-01-22 05:22:00,
2013-01-22 00:28:00,20.8,14.5,29.77,West,270,0.0,0.0,76,0.00,,,0.00,pywws,2013-01-22 05:28:00,
2013-01-22 00:34:00,21.0,14.7,29.76,North,0,0.0,0.0,76,0.00,,,0.00,pywws,2013-01-22 05:34:00,
2013-01-22 00:40:00,21.0,14.4,29.76,North,0,0.0,0.0,75,0.00,,,0.00,pywws,2013-01-22 05:40:00,
2013-01-22 00:45:00,21.0,14.4,29.75,North,0,0.0,0.0,75,0.00,,,0.00,pywws,2013-01-22 05:45:00,
2013-01-22 00:51:00,20.7,14.0,29.75,North,0,0.0,0.0,75,0.00,,,0.00,pywws,2013-01-22 05:51:00,
2013-01-22 00:57:00,20.8,14.2,29.76,North,0,0.0,0.0,75,0.00,,,0.00,pywws,2013-01-22 05:57:00,
2013-01-22 01:02:00,20.7,14.0,29.76,NW,315,0.0,0.0,75,0.00,,,0.00,pywws,2013-01-22 06:02:00,
2013-01-22 01:08:00,20.7,14.0,29.77,West,270,0.0,0.0,75,0.00,,,0.00,pywws,2013-01-22 06:08:00,
2013-01-22 01:14:00,20.5,13.8,29.77,West,270,0.0,0.0,75,0.00,,,0.00,pywws,2013-01-22 06:14:00,
2013-01-22 01:21:00,20.1,13.5,29.77,West,270,0.0,0.0,75,0.00,,,0.00,pywws,2013-01-22 06:21:00,
2013-01-22 01:26:00,20.3,13.7,29.77,North,0,0.0,0.0,75,0.00,,,0.00,pywws,2013-01-22 06:26:00,
2013-01-22 01:32:00,20.3,13.7,29.77,North,0,0.0,0.0,75,0.00,,,0.00,pywws,2013-01-22 06:32:00,
2013-01-22 01:39:00,20.3,13.7,29.77,North,0,0.0,0.0,75,0.00,,,0.00,pywws,2013-01-22 06:39:00,
2013-01-22 01:45:00,20.5,13.8,29.78,North,0,0.0,0.0,75,0.00,,,0.00,pywws,2013-01-22 06:45:00,
2013-01-22 01:50:00,20.7,14.0,29.77,East,90,0.0,0.0,75,0.00,,,0.00,pywws,2013-01-22 06:50:00,
2013-01-22 01:56:00,20.7,14.0,29.77,East,90,0.0,0.0,75,0.00,,,0.00,pywws,2013-01-22 06:56:00,
2013-01-22 02:01:00,20.7,14.0,29.78,North,0,0.0,0.0,75,0.00,,,0.00,pywws,2013-01-22 07:01:00,
2013-01-22 02:08:00,20.8,14.2,29.78,North,0,0.0,0.0,75,0.00,,,0.00,pywws,2013-01-22 07:08:00,
2013-01-22 02:13:00,20.8,14.2,29.77,North,0,0.0,0.0,75,0.00,,,0.00,pywws,2013-01-22 07:13:00,
2013-01-22 02:19:00,20.8,14.2,29.77,North,0,0.0,0.0,75,0.00,,,0.00,pywws,2013-01-22 07:19:00,
2013-01-22 02:25:00,20.3,13.7,29.77,NW,315,0.0,0.0,75,0.00,,,0.00,pywws,2013-01-22 07:25:00,
2013-01-22 02:30:00,19.4,12.8,29.77,NW,315,0.0,0.0,75,0.00,,,0.00,pywws,2013-01-22 07:30:00,
2013-01-22 02:36:00,19.0,10.9,29.76,NW,315,0.0,0.0,70,0.00,,,0.00,pywws,2013-01-22 07:36:00,
2013-01-22 02:42:00,18.3,10.2,29.75,NW,315,0.0,0.0,70,0.00,,,0.00,pywws,2013-01-22 07:42:00,
2013-01-22 02:48:00,18.0,10.2,29.76,NW,315,0.0,0.0,71,0.00,,,0.00,pywws,2013-01-22 07:48:00,
2013-01-22 02:53:00,17.4,10.0,29.76,NW,315,0.0,0.0,72,0.00,,,0.00,pywws,2013-01-22 07:53:00,
2013-01-22 03:01:00,16.5,9.1,29.75,NW,315,0.0,0.0,72,0.00,,,0.00,pywws,2013-01-22 08:01:00,
2013-01-22 03:08:00,16.3,8.9,29.75,West,270,0.0,0.0,72,0.00,,,0.00,pywws,2013-01-22 08:08:00,
2013-01-22 03:13:00,16.0,8.6,29.76,West,270,0.0,0.0,72,0.00,,,0.00,pywws,2013-01-22 08:13:00,
2013-01-22 03:20:00,16.7,9.3,29.75,West,270,0.0,0.0,72,0.00,,,0.00,pywws,2013-01-22 08:20:00,
2013-01-22 03:25:00,17.1,9.6,29.75,North,0,0.0,0.0,72,0.00,,,0.00,pywws,2013-01-22 08:25:00,
2013-01-22 03:31:00,17.4,10.3,29.76,North,0,0.0,0.0,73,0.00,,,0.00,pywws,2013-01-22 08:31:00,
2013-01-22 03:37:00,18.0,10.5,29.75,North,0,0.0,0.0,72,0.00,,,0.00,pywws,2013-01-22 08:37:00,
2013-01-22 03:44:00,18.3,10.8,29.76,North,0,0.0,0.0,72,0.00,,,0.00,pywws,2013-01-22 08:44:00,
2013-01-22 03:49:00,18.1,10.7,29.75,West,270,0.0,0.0,72,0.00,,,0.00,pywws,2013-01-22 08:49:00,
2013-01-22 03:55:00,18.3,10.8,29.75,West,270,0.0,0.0,72,0.00,,,0.00,pywws,2013-01-22 08:55:00,
2013-01-22 04:01:00,18.7,11.2,29.75,West,270,0.0,0.0,72,0.00,,,0.00,pywws,2013-01-22 09:01:00,
2013-01-22 04:06:00,18.1,10.7,29.75,West,270,0.0,0.0,72,0.00,,,0.00,pywws,2013-01-22 09:06:00,
2013-01-22 04:16:00,17.8,10.3,29.75,West,270,0.0,0.0,72,0.00,,,0.00,pywws,2013-01-22 09:16:00,
2013-01-22 04:22:00,17.8,10.3,29.75,West,270,0.0,0.0,72,0.00,,,0.00,pywws,2013-01-22 09:22:00,
2013-01-22 04:28:00,18.1,10.7,29.76,West,270,0.0,0.0,72,0.00,,,0.00,pywws,2013-01-22 09:28:00,
2013-01-22 04:34:00,18.5,11.0,29.76,West,270,0.0,0.0,72,0.00,,,0.00,pywws,2013-01-22 09:34:00,
2013-01-22 04:40:00,19.2,12.0,29.76,North,0,0.0,0.0,73,0.00,,,0.00,pywws,2013-01-22 09:40:00,
2013-01-22 04:47:00,19.6,13.6,29.75,South,180,0.0,0.0,77,0.00,,,0.00,pywws,2013-01-22 09:47:00,
2013-01-22 04:53:00,19.6,13.3,29.76,SE,135,0.0,0.0,76,0.00,,,0.00,pywws,2013-01-22 09:53:00,
2013-01-22 04:58:00,19.9,13.6,29.76,North,0,0.0,0.0,76,0.00,,,0.00,pywws,2013-01-22 09:58:00,
2013-01-22 05:04:00,20.3,13.7,29.77,West,270,0.0,0.0,75,0.00,,,0.00,pywws,2013-01-22 10:04:00,
2013-01-22 05:09:00,20.3,13.4,29.76,SW,225,0.0,0.0,74,0.00,,,0.00,pywws,2013-01-22 10:09:00,
2013-01-22 05:15:00,20.3,12.4,29.77,West,270,0.0,0.0,71,0.00,,,0.00,pywws,2013-01-22 10:15:00,
2013-01-22 05:21:00,20.1,11.9,29.77,West,270,2.2,4.5,70,0.00,,,0.00,pywws,2013-01-22 10:21:00,
2013-01-22 05:26:00,20.5,11.6,29.78,West,270,0.0,0.7,68,0.00,,,0.00,pywws,2013-01-22 10:26:00,
2013-01-22 05:32:00,20.3,11.1,29.78,North,0,0.0,0.7,67,0.00,,,0.00,pywws,2013-01-22 10:32:00,
2013-01-22 05:37:00,20.1,10.6,29.78,East,90,0.0,0.0,66,0.00,,,0.00,pywws,2013-01-22 10:37:00,
2013-01-22 05:43:00,19.9,10.1,29.78,NW,315,0.0,0.0,65,0.00,,,0.00,pywws,2013-01-22 10:43:00,
2013-01-22 05:49:00,19.8,9.9,29.78,North,0,0.0,1.6,65,0.00,,,0.00,pywws,2013-01-22 10:49:00,
2013-01-22 05:54:00,19.8,9.2,29.78,West,270,0.0,0.0,63,0.00,,,0.00,pywws,2013-01-22 10:54:00,
2013-01-22 06:01:00,19.4,8.5,29.79,North,0,0.0,0.0,62,0.00,,,0.00,pywws,2013-01-22 11:01:00,
2013-01-22 06:06:00,18.5,6.2,29.80,South,180,0.0,0.0,58,0.00,,,0.00,pywws,2013-01-22 11:06:00,
2013-01-22 06:12:00,18.9,6.9,29.80,NW,315,0.0,0.0,59,0.00,,,0.00,pywws,2013-01-22 11:12:00,
2013-01-22 06:17:00,18.7,6.8,29.80,West,270,0.7,4.5,59,0.00,,,0.00,pywws,2013-01-22 11:17:00,
2013-01-22 06:23:00,18.9,6.9,29.80,North,0,0.0,0.0,59,0.00,,,0.00,pywws,2013-01-22 11:23:00,
2013-01-22 06:29:00,18.1,5.9,29.80,North,0,0.0,0.0,58,0.00,,,0.00,pywws,2013-01-22 11:29:00,
2013-01-22 06:34:00,17.6,5.7,29.80,North,0,0.0,0.0,59,0.00,,,0.00,pywws,2013-01-22 11:34:00,
2013-01-22 06:40:00,17.6,5.7,29.81,West,270,0.0,0.0,59,0.00,,,0.00,pywws,2013-01-22 11:40:00,
2013-01-22 06:45:00,18.0,6.1,29.80,West,270,0.0,0.0,59,0.00,,,0.00,pywws,2013-01-22 11:45:00,
2013-01-22 06:51:00,18.1,5.9,29.81,South,180,0.0,0.0,58,0.00,,,0.00,pywws,2013-01-22 11:51:00,
2013-01-22 06:57:00,17.6,5.4,29.81,South,180,0.0,0.0,58,0.00,,,0.00,pywws,2013-01-22 11:57:00,
2013-01-22 07:02:00,17.4,5.2,29.81,West,270,0.0,0.0,58,0.00,,,0.00,pywws,2013-01-22 12:02:00,
2013-01-22 07:07:00,17.6,5.0,29.82,West,270,0.0,0.0,57,0.00,,,0.00,pywws,2013-01-22 12:07:00,
2013-01-22 07:13:00,17.2,4.7,29.82,West,270,0.0,0.0,57,0.00,,,0.00,pywws,2013-01-22 12:13:00,
2013-01-22 07:18:00,17.4,4.4,29.82,West,270,0.0,0.7,56,0.00,,,0.00,pywws,2013-01-22 12:18:00,
2013-01-22 07:24:00,17.4,4.4,29.82,SE,135,0.0,0.0,56,0.00,,,0.00,pywws,2013-01-22 12:24:00,
2013-01-22 07:29:00,16.9,3.9,29.83,West,270,0.0,0.0,56,0.00,,,0.00,pywws,2013-01-22 12:29:00,
2013-01-22 07:35:00,17.1,4.1,29.83,SW,225,0.0,0.0,56,0.00,,,0.00,pywws,2013-01-22 12:35:00,
2013-01-22 07:41:00,17.1,4.5,29.83,SE,135,0.0,0.0,57,0.00,,,0.00,pywws,2013-01-22 12:41:00,
2013-01-22 07:46:00,17.1,4.5,29.83,North,0,0.0,0.0,57,0.00,,,0.00,pywws,2013-01-22 12:46:00,
2013-01-22 07:51:00,17.2,4.3,29.83,NW,315,0.0,0.0,56,0.00,,,0.00,pywws,2013-01-22 12:51:00,
2013-01-22 07:57:00,17.2,4.3,29.83,West,270,0.0,0.0,56,0.00,,,0.00,pywws,2013-01-22 12:57:00,
2013-01-22 08:02:00,17.6,3.8,29.83,South,180,0.0,0.7,54,0.00,,,0.00,pywws,2013-01-22 13:02:00,
2013-01-22 08:07:00,17.6,3.8,29.84,West,270,0.0,0.0,54,0.00,,,0.00,pywws,2013-01-22 13:07:00,
2013-01-22 08:13:00,17.6,3.4,29.84,SE,135,0.0,0.7,53,0.00,,,0.00,pywws,2013-01-22 13:13:00,
2013-01-22 08:18:00,17.8,3.6,29.84,North,0,0.0,0.0,53,0.00,,,0.00,pywws,2013-01-22 13:18:00,
2013-01-22 08:24:00,18.0,3.3,29.84,North,0,0.0,1.6,52,0.00,,,0.00,pywws,2013-01-22 13:24:00,
2013-01-22 08:29:00,18.1,3.5,29.84,North,0,0.0,3.1,52,0.00,,,0.00,pywws,2013-01-22 13:29:00,
2013-01-22 08:35:00,18.3,3.3,29.85,West,270,0.0,0.7,51,0.00,,,0.00,pywws,2013-01-22 13:35:00,
2013-01-22 08:41:00,18.3,3.3,29.85,North,0,0.0,0.0,51,0.00,,,0.00,pywws,2013-01-22 13:41:00,
2013-01-22 08:46:00,18.5,3.0,29.85,West,270,0.0,0.0,50,0.00,,,0.00,pywws,2013-01-22 13:46:00,
2013-01-22 08:52:00,18.9,3.3,29.85,South,180,0.0,0.7,50,0.00,,,0.00,pywws,2013-01-22 13:52:00,
2013-01-22 08:57:00,18.7,2.7,29.85,SE,135,0.0,0.7,49,0.00,,,0.00,pywws,2013-01-22 13:57:00,
2013-01-22 09:03:00,18.7,2.3,29.85,NW,315,0.0,0.0,48,0.00,,,0.00,pywws,2013-01-22 14:03:00,
2013-01-22 09:09:00,18.9,2.0,29.85,SW,225,0.7,7.6,47,0.00,,,0.00,pywws,2013-01-22 14:09:00,
2013-01-22 09:14:00,18.9,1.5,29.86,NW,315,0.7,4.5,46,0.00,,,0.00,pywws,2013-01-22 14:14:00,
2013-01-22 09:20:00,19.0,1.7,29.86,SW,225,0.0,0.7,46,0.00,,,0.00,pywws,2013-01-22 14:20:00,
2013-01-22 09:25:00,19.4,3.8,29.86,West,270,2.2,5.4,50,0.00,,,0.00,pywws,2013-01-22 14:25:00,
2013-01-22 09:31:00,19.0,0.3,29.87,West,270,0.0,3.1,43,0.00,,,0.00,pywws,2013-01-22 14:31:00,
2013-01-22 09:37:00,19.2,0.4,29.86,North,0,2.2,5.4,43,0.00,,,0.00,pywws,2013-01-22 14:37:00,
2013-01-22 09:42:00,19.9,2.5,29.87,North,0,0.0,2.2,46,0.00,,,0.00,pywws,2013-01-22 14:42:00,
2013-01-22 09:48:00,19.8,1.9,29.87,NW,315,2.2,9.8,45,0.00,,,0.00,pywws,2013-01-22 14:48:00,
2013-01-22 09:53:00,20.3,2.4,29.87,North,0,0.0,0.7,45,0.00,,,0.00,pywws,2013-01-22 14:53:00,
2013-01-22 09:59:00,20.3,0.9,29.88,West,270,0.0,0.0,42,0.00,,,0.00,pywws,2013-01-22 14:59:00,
2013-01-22 10:05:00,20.5,1.1,29.88,SW,225,1.6,8.3,42,0.00,,,0.00,pywws,2013-01-22 15:05:00,
2013-01-22 10:10:00,20.5,0.6,29.88,West,270,0.0,1.6,41,0.00,,,0.00,pywws,2013-01-22 15:10:00,
2013-01-22 10:16:00,22.5,2.9,29.88,NE,45,0.0,1.6,42,0.00,,,0.00,pywws,2013-01-22 15:16:00,
2013-01-22 10:21:00,21.2,-1.0,29.88,NW,315,0.0,2.2,37,0.00,,,0.00,pywws,2013-01-22 15:21:00,
2013-01-22 10:27:00,21.9,-0.9,29.88,NW,315,1.6,6.0,36,0.00,,,0.00,pywws,2013-01-22 15:27:00,
2013-01-22 10:33:00,21.7,-1.1,29.88,SW,225,1.6,4.5,36,0.00,,,0.00,pywws,2013-01-22 15:33:00,
2013-01-22 10:38:00,21.4,-2.0,29.88,South,180,2.2,7.6,35,0.00,,,0.00,pywws,2013-01-22 15:38:00,
2013-01-22 10:44:00,23.0,-1.8,29.88,West,270,0.0,0.7,33,0.00,,,0.00,pywws,2013-01-22 15:44:00,
2013-01-22 10:49:00,22.3,-1.8,29.88,NW,315,0.0,1.6,34,0.00,,,0.00,pywws,2013-01-22 15:49:00,
2013-01-22 10:55:00,22.8,-1.3,29.88,SE,135,0.0,3.1,34,0.00,,,0.00,pywws,2013-01-22 15:55:00,
2013-01-22 11:01:00,22.5,-2.2,29.88,East,90,0.0,0.0,33,0.00,,,0.00,pywws,2013-01-22 16:01:00,
2013-01-22 11:06:00,23.4,-1.4,29.88,NW,315,0.0,0.0,33,0.00,,,0.00,pywws,2013-01-22 16:06:00,
2013-01-22 11:12:00,22.1,-4.5,29.88,West,270,1.6,9.8,30,0.00,,,0.00,pywws,2013-01-22 16:12:00,
2013-01-22 11:17:00,21.4,-5.2,29.88,NW,315,1.6,5.4,30,0.00,,,0.00,pywws,2013-01-22 16:17:00,
2013-01-22 11:23:00,21.4,-5.2,29.88,NW,315,2.2,6.0,30,0.00,,,0.00,pywws,2013-01-22 16:23:00,
2013-01-22 11:29:00,21.6,-5.0,29.88,NW,315,0.7,5.4,30,0.00,,,0.00,pywws,2013-01-22 16:29:00,
2013-01-22 11:34:00,21.9,-4.7,29.88,North,0,1.6,7.6,30,0.00,,,0.00,pywws,2013-01-22 16:34:00,
2013-01-22 11:40:00,21.6,-5.0,29.88,NW,315,0.0,1.6,30,0.00,,,0.00,pywws,2013-01-22 16:40:00,
2013-01-22 11:45:00,23.4,-4.1,29.87,North,0,0.0,0.0,29,0.00,,,0.00,pywws,2013-01-22 16:45:00,
2013-01-22 11:51:00,22.8,-3.9,29.88,West,270,1.6,5.4,30,0.00,,,0.00,pywws,2013-01-22 16:51:00,
2013-01-22 11:57:00,22.5,-4.2,29.87,West,270,2.2,6.9,30,0.00,,,0.00,pywws,2013-01-22 16:57:00,
2013-01-22 12:02:00,21.9,-6.1,29.87,NW,315,0.7,4.5,28,0.00,,,0.00,pywws,2013-01-22 17:02:00,
2013-01-22 12:08:00,21.7,-6.3,29.87,SW,225,5.4,7.6,28,0.00,,,0.00,pywws,2013-01-22 17:08:00,
2013-01-22 12:13:00,20.8,-6.4,29.87,SW,225,0.7,6.0,29,0.00,,,0.00,pywws,2013-01-22 17:13:00,
2013-01-22 12:19:00,21.4,-6.6,29.87,SE,135,0.0,1.6,28,0.00,,,0.00,pywws,2013-01-22 17:19:00,
2013-01-22 12:25:00,21.6,-7.2,29.86,North,0,1.6,6.9,27,0.00,,,0.00,pywws,2013-01-22 17:25:00,
2013-01-22 12:30:00,21.7,-7.0,29.87,SE,135,0.0,0.7,27,0.00,,,0.00,pywws,2013-01-22 17:30:00,
2013-01-22 12:36:00,22.3,-6.6,29.87,SW,225,0.0,0.0,27,0.00,,,0.00,pywws,2013-01-22 17:36:00,
2013-01-22 12:41:00,21.4,-7.3,29.87,North,0,0.7,3.8,27,0.00,,,0.00,pywws,2013-01-22 17:41:00,
2013-01-22 12:47:00,21.7,-7.0,29.87,NW,315,0.0,1.6,27,0.00,,,0.00,pywws,2013-01-22 17:47:00,
2013-01-22 12:52:00,22.5,-6.4,29.87,North,0,0.0,0.7,27,0.00,,,0.00,pywws,2013-01-22 17:52:00,
2013-01-22 12:57:00,22.3,-6.6,29.86,North,0,0.0,0.0,27,0.00,,,0.00,pywws,2013-01-22 17:57:00,
2013-01-22 13:02:00,22.8,-6.1,29.87,West,270,1.6,3.8,27,0.00,,,0.00,pywws,2013-01-22 18:02:00,
2013-01-22 13:07:00,23.2,-6.6,29.87,SW,225,0.0,0.7,26,0.00,,,0.00,pywws,2013-01-22 18:07:00,
2013-01-22 13:13:00,22.3,-6.6,29.87,West,270,0.0,1.6,27,0.00,,,0.00,pywws,2013-01-22 18:13:00,
2013-01-22 13:18:00,21.4,-7.3,29.87,North,0,0.0,2.2,27,0.00,,,0.00,pywws,2013-01-22 18:18:00,
2013-01-22 13:24:00,21.2,-8.3,29.88,SW,225,1.6,8.3,26,0.00,,,0.00,pywws,2013-01-22 18:24:00,
2013-01-22 13:29:00,21.7,-7.8,29.87,NW,315,0.0,0.7,26,0.00,,,0.00,pywws,2013-01-22 18:29:00,
2013-01-22 13:35:00,21.0,-7.7,29.87,West,270,0.7,6.9,27,0.00,,,0.00,pywws,2013-01-22 18:35:00,
2013-01-22 13:41:00,21.2,-8.3,29.87,South,180,0.0,0.7,26,0.00,,,0.00,pywws,2013-01-22 18:41:00,
2013-01-22 13:46:00,22.5,-7.2,29.87,North,0,0.7,3.1,26,0.00,,,0.00,pywws,2013-01-22 18:46:00,
2013-01-22 13:52:00,21.4,-8.9,29.87,NW,315,0.0,1.6,25,0.00,,,0.00,pywws,2013-01-22 18:52:00,
2013-01-22 13:57:00,22.5,-8.0,29.87,NW,315,2.2,6.0,25,0.00,,,0.00,pywws,2013-01-22 18:57:00,
2013-01-22 14:03:00,22.3,-8.1,29.88,North,0,3.1,8.3,25,0.00,,,0.00,pywws,2013-01-22 19:03:00,
2013-01-22 14:09:00,21.9,-8.4,29.88,SW,225,0.0,0.7,25,0.00,,,0.00,pywws,2013-01-22 19:09:00,
2013-01-22 14:14:00,22.1,-8.3,29.88,NE,45,0.7,6.0,25,0.00,,,0.00,pywws,2013-01-22 19:14:00,
2013-01-22 14:20:00,24.4,-6.3,29.88,West,270,0.7,4.5,25,0.00,,,0.00,pywws,2013-01-22 19:20:00,
2013-01-22 14:25:00,22.1,-7.5,29.88,West,270,0.0,0.0,26,0.00,,,0.00,pywws,2013-01-22 19:25:00,
2013-01-22 14:31:00,21.9,-8.4,29.89,West,270,3.1,6.9,25,0.00,,,0.00,pywws,2013-01-22 19:31:00,
2013-01-22 14:37:00,20.7,-8.7,29.89,NW,315,0.0,2.2,26,0.00,,,0.00,pywws,2013-01-22 19:37:00,
2013-01-22 14:42:00,20.1,-9.2,29.89,West,270,0.0,4.5,26,0.00,,,0.00,pywws,2013-01-22 19:42:00,
2013-01-22 14:48:00,22.1,-7.5,29.90,East,90,0.0,1.6,26,0.00,,,0.00,pywws,2013-01-22 19:48:00,
2013-01-22 14:53:00,21.2,-8.3,29.89,SE,135,0.0,1.6,26,0.00,,,0.00,pywws,2013-01-22 19:53:00,
2013-01-22 14:59:00,20.3,-8.3,29.90,West,270,0.0,0.7,27,0.00,,,0.00,pywws,2013-01-22 19:59:00,
2013-01-22 15:05:00,21.2,-8.3,29.90,NW,315,0.0,0.0,26,0.00,,,0.00,pywws,2013-01-22 20:05:00,
2013-01-22 15:10:00,21.4,-8.9,29.90,West,270,0.0,0.0,25,0.00,,,0.00,pywws,2013-01-22 20:10:00,
2013-01-22 15:16:00,21.4,-8.9,29.91,NW,315,1.6,4.5,25,0.00,,,0.00,pywws,2013-01-22 20:16:00,
2013-01-22 15:21:00,20.7,-8.7,29.91,NW,315,1.6,5.4,26,0.00,,,0.00,pywws,2013-01-22 20:21:00,
2013-01-22 15:27:00,20.8,-8.6,29.91,North,0,0.0,0.0,26,0.00,,,0.00,pywws,2013-01-22 20:27:00,
2013-01-22 15:32:00,19.8,-9.5,29.92,West,270,3.8,9.8,26,0.00,,,0.00,pywws,2013-01-22 20:32:00,
2013-01-22 15:37:00,19.4,-9.8,29.91,SW,225,3.1,6.0,26,0.00,,,0.00,pywws,2013-01-22 20:37:00,
2013-01-22 15:43:00,19.2,-13.3,29.92,West,270,1.6,6.0,22,0.00,,,0.00,pywws,2013-01-22 20:43:00,
2013-01-22 15:49:00,18.9,-13.6,29.92,West,270,0.0,1.6,22,0.00,,,0.00,pywws,2013-01-22 20:49:00,
2013-01-22 15:54:00,18.9,-13.6,29.92,North,0,0.0,0.0,22,0.00,,,0.00,pywws,2013-01-22 20:54:00,
2013-01-22 16:00:00,18.9,-13.6,29.93,NW,315,0.0,0.0,22,0.00,,,0.00,pywws,2013-01-22 21:00:00,
2013-01-22 16:05:00,19.0,-13.5,29.93,SW,225,0.0,0.0,22,0.00,,,0.00,pywws,2013-01-22 21:05:00,
2013-01-22 16:11:00,18.9,-12.7,29.93,West,270,0.0,0.0,23,0.00,,,0.00,pywws,2013-01-22 21:11:00,
2013-01-22 16:16:00,20.3,-8.3,29.93,West,270,0.0,0.0,27,0.00,,,0.00,pywws,2013-01-22 21:16:00,
2013-01-22 16:22:00,18.9,-12.7,29.93,North,0,0.0,2.2,23,0.00,,,0.00,pywws,2013-01-22 21:22:00,
2013-01-22 16:27:00,18.5,-13.0,29.94,NW,315,3.8,13.6,23,0.00,,,0.00,pywws,2013-01-22 21:27:00,
2013-01-22 16:33:00,18.3,-13.2,29.94,NW,315,0.0,0.7,23,0.00,,,0.00,pywws,2013-01-22 21:33:00,
2013-01-22 16:34:00,18.1,-14.2,29.94,North,0,0.0,0.0,22,0.00,,,0.00,pywws,2013-01-22 21:34:00,
2013-01-22 16:40:00,18.0,-13.5,29.95,North,0,0.0,0.7,23,0.00,,,0.00,pywws,2013-01-22 21:40:00,
2013-01-22 16:45:00,18.0,-13.5,29.95,North,0,0.0,0.0,23,0.00,,,0.00,pywws,2013-01-22 21:45:00,
2013-01-22 16:51:00,17.6,-13.8,29.95,West,270,0.0,0.7,23,0.00,,,0.00,pywws,2013-01-22 21:51:00,
2013-01-22 16:57:00,17.6,-13.8,29.96,West,270,0.0,2.2,23,0.00,,,0.00,pywws,2013-01-22 21:57:00,
2013-01-22 17:02:00,17.4,-13.1,29.96,SE,135,0.0,0.0,24,0.00,,,0.00,pywws,2013-01-22 22:02:00,
2013-01-22 17:08:00,17.2,-13.3,29.96,NW,315,0.0,0.0,24,0.00,,,0.00,pywws,2013-01-22 22:08:00,
2013-01-22 17:13:00,17.6,-13.0,29.96,West,270,0.0,0.7,24,0.00,,,0.00,pywws,2013-01-22 22:13:00,
2013-01-22 17:19:00,17.1,-12.6,29.97,West,270,0.0,0.0,25,0.00,,,0.00,pywws,2013-01-22 22:19:00,
2013-01-22 17:25:00,17.1,-12.6,29.97,NW,315,0.7,4.5,25,0.00,,,0.00,pywws,2013-01-22 22:25:00,
2013-01-22 17:30:00,17.1,-12.6,29.97,North,0,0.0,0.7,25,0.00,,,0.00,pywws,2013-01-22 22:30:00,
2013-01-22 17:36:00,16.9,-12.8,29.98,SE,135,0.0,1.6,25,0.00,,,0.00,pywws,2013-01-22 22:36:00,
2013-01-22 17:41:00,16.7,-12.9,29.98,NW,315,0.0,2.2,25,0.00,,,0.00,pywws,2013-01-22 22:41:00,
2013-01-22 17:47:00,16.7,-12.9,29.99,West,270,0.0,0.0,25,0.00,,,0.00,pywws,2013-01-22 22:47:00,
2013-01-22 17:53:00,16.3,-13.2,29.99,NW,315,0.0,0.0,25,0.00,,,0.00,pywws,2013-01-22 22:53:00,
2013-01-22 17:58:00,16.2,-13.4,29.99,North,0,0.0,0.0,25,0.00,,,0.00,pywws,2013-01-22 22:58:00,
2013-01-22 18:04:00,16.2,-13.4,30.00,North,0,2.2,7.6,25,0.00,,,0.00,pywws,2013-01-22 23:04:00,
2013-01-22 18:09:00,16.2,-13.4,30.00,South,180,0.0,0.0,25,0.00,,,0.00,pywws,2013-01-22 23:09:00,
2013-01-22 18:15:00,16.0,-13.6,30.00,West,270,0.0,0.0,25,0.00,,,0.00,pywws,2013-01-22 23:15:00,
2013-01-22 18:21:00,16.0,-13.6,30.01,West,270,0.0,0.0,25,0.00,,,0.00,pywws,2013-01-22 23:21:00,
2013-01-22 18:26:00,15.8,-13.7,30.01,North,0,0.0,0.0,25,0.00,,,0.00,pywws,2013-01-22 23:26:00,
2013-01-22 18:33:00,15.6,-12.3,30.01,NW,315,0.0,0.0,27,0.00,,,0.00,pywws,2013-01-22 23:33:00,
2013-01-22 18:38:00,15.3,-11.9,30.01,North,0,0.0,0.0,28,0.00,,,0.00,pywws,2013-01-22 23:38:00,
2013-01-22 18:44:00,15.6,-11.6,30.02,North,0,0.0,0.7,28,0.00,,,0.00,pywws,2013-01-22 23:44:00,
2013-01-22 18:49:00,15.4,-11.8,30.01,NW,315,0.0,0.0,28,0.00,,,0.00,pywws,2013-01-22 23:49:00,
2013-01-22 18:55:00,15.3,-12.7,30.02,West,270,0.0,0.7,27,0.00,,,0.00,pywws,2013-01-22 23:55:00,
2013-01-22 19:01:00,15.3,-12.7,30.02,West,270,0.0,0.0,27,0.00,,,0.00,pywws,2013-01-23 00:01:00,
2013-01-22 19:06:00,14.9,-12.2,30.02,West,270,0.0,0.0,28,0.00,,,0.00,pywws,2013-01-23 00:06:00,
2013-01-22 19:12:00,14.7,-11.7,30.02,North,0,0.0,0.0,29,0.00,,,0.00,pywws,2013-01-23 00:12:00,
2013-01-22 19:17:00,14.7,-11.7,30.03,West,270,0.0,2.2,29,0.00,,,0.00,pywws,2013-01-23 00:17:00,
2013-01-22 19:23:00,14.9,-11.5,30.03,NW,315,0.0,0.0,29,0.00,,,0.00,pywws,2013-01-23 00:23:00,
2013-01-22 19:29:00,14.9,-10.9,30.02,North,0,0.0,3.1,30,0.00,,,0.00,pywws,2013-01-23 00:29:00,
2013-01-22 19:35:00,14.9,-11.5,30.03,NE,45,0.0,0.0,29,0.00,,,0.00,pywws,2013-01-23 00:35:00,
2013-01-22 19:41:00,14.5,-11.9,30.02,West,270,0.0,0.0,29,0.00,,,0.00,pywws,2013-01-23 00:41:00,
2013-01-22 19:46:00,14.2,-12.2,30.03,South,180,0.0,0.0,29,0.00,,,0.00,pywws,2013-01-23 00:46:00,
2013-01-22 19:52:00,14.2,-11.5,30.03,West,270,0.0,0.0,30,0.00,,,0.00,pywws,2013-01-23 00:52:00,
2013-01-22 19:57:00,13.6,-10.7,30.03,West,270,0.0,0.0,32,0.00,,,0.00,pywws,2013-01-23 00:57:00,
2013-01-22 20:03:00,13.3,-10.4,30.03,SW,225,0.0,0.0,33,0.00,,,0.00,pywws,2013-01-23 01:03:00,
2013-01-22 20:09:00,14.4,-10.0,30.03,East,90,0.0,2.2,32,0.00,,,0.00,pywws,2013-01-23 01:09:00,
2013-01-22 20:14:00,14.4,-10.0,30.03,West,270,0.0,0.7,32,0.00,,,0.00,pywws,2013-01-23 01:14:00,
2013-01-22 20:20:00,14.2,-10.8,30.04,West,270,0.0,0.0,31,0.00,,,0.00,pywws,2013-01-23 01:20:00,
2013-01-22 20:25:00,13.6,-10.1,30.04,West,270,0.0,0.0,33,0.00,,,0.00,pywws,2013-01-23 01:25:00,
2013-01-22 20:31:00,14.2,-9.6,30.04,South,180,0.0,0.0,33,0.00,,,0.00,pywws,2013-01-23 01:31:00,
2013-01-22 20:37:00,14.0,-9.7,30.04,West,270,0.0,0.0,33,0.00,,,0.00,pywws,2013-01-23 01:37:00,
2013-01-22 20:42:00,14.0,-9.7,30.04,North,0,0.0,0.0,33,0.00,,,0.00,pywws,2013-01-23 01:42:00,
2013-01-22 20:48:00,14.0,-9.1,30.04,West,270,0.0,2.2,34,0.00,,,0.00,pywws,2013-01-23 01:48:00,
2013-01-22 20:53:00,14.0,-9.1,30.04,SW,225,0.0,0.0,34,0.00,,,0.00,pywws,2013-01-23 01:53:00,
2013-01-22 20:59:00,13.5,-9.0,30.04,West,270,0.0,0.0,35,0.00,,,0.00,pywws,2013-01-23 01:59:00,
2013-01-22 21:05:00,12.4,-9.4,30.04,West,270,0.0,0.0,36,0.00,,,0.00,pywws,2013-01-23 02:05:00,
2013-01-22 21:10:00,13.1,-8.2,30.04,NW,315,0.0,0.7,37,0.00,,,0.00,pywws,2013-01-23 02:10:00,
2013-01-22 21:17:00,13.1,-8.2,30.04,NW,315,0.0,0.0,37,0.00,,,0.00,pywws,2013-01-23 02:17:00,
2013-01-22 21:22:00,12.9,-8.4,30.05,South,180,0.0,0.0,37,0.00,,,0.00,pywws,2013-01-23 02:22:00,
2013-01-22 21:28:00,12.4,-8.9,30.05,NW,315,0.0,0.0,37,0.00,,,0.00,pywws,2013-01-23 02:28:00,
2013-01-22 21:33:00,12.2,-8.5,30.05,South,180,0.0,0.0,38,0.00,,,0.00,pywws,2013-01-23 02:33:00,
2013-01-22 21:39:00,12.4,-7.8,30.05,West,270,0.0,0.0,39,0.00,,,0.00,pywws,2013-01-23 02:39:00,
2013-01-22 21:45:00,12.4,-7.3,30.05,West,270,0.0,0.0,40,0.00,,,0.00,pywws,2013-01-23 02:45:00,
2013-01-22 21:50:00,12.2,-7.5,30.06,North,0,0.0,0.0,40,0.00,,,0.00,pywws,2013-01-23 02:50:00,
2013-01-22 21:56:00,12.2,-7.5,30.06,West,270,0.0,0.0,40,0.00,,,0.00,pywws,2013-01-23 02:56:00,
2013-01-22 22:02:00,11.7,-6.5,30.06,South,180,0.0,0.0,43,0.00,,,0.00,pywws,2013-01-23 03:02:00,
2013-01-22 22:08:00,11.3,-5.9,30.06,East,90,0.0,0.0,45,0.00,,,0.00,pywws,2013-01-23 03:08:00,
2013-01-22 22:14:00,10.0,-8.9,30.06,East,90,0.0,0.0,41,0.00,,,0.00,pywws,2013-01-23 03:14:00,
2013-01-22 22:20:00,9.7,-8.8,30.06,East,90,0.0,0.0,42,0.00,,,0.00,pywws,2013-01-23 03:20:00,
2013-01-22 22:26:00,9.9,-8.1,30.06,East,90,0.0,0.0,43,0.00,,,0.00,pywws,2013-01-23 03:26:00,
2013-01-22 22:32:00,9.9,-8.1,30.07,East,90,0.0,0.0,43,0.00,,,0.00,pywws,2013-01-23 03:32:00,
2013-01-22 22:38:00,9.3,-8.1,30.07,East,90,0.0,0.0,44,0.00,,,0.00,pywws,2013-01-23 03:38:00,
2013-01-22 22:44:00,10.0,-7.0,30.07,West,270,0.0,0.0,45,0.00,,,0.00,pywws,2013-01-23 03:44:00,
2013-01-22 22:49:00,9.3,-7.7,30.07,West,270,0.0,0.0,45,0.00,,,0.00,pywws,2013-01-23 03:49:00,
2013-01-22 22:55:00,9.3,-7.7,30.07,West,270,0.0,0.0,45,0.00,,,0.00,pywws,2013-01-23 03:55:00,
2013-01-22 23:01:00,9.5,-7.5,30.07,South,180,0.0,0.0,45,0.00,,,0.00,pywws,2013-01-23 04:01:00,
2013-01-22 23:06:00,9.9,-7.2,30.07,West,270,0.0,0.0,45,0.00,,,0.00,pywws,2013-01-23 04:06:00,
2013-01-22 23:12:00,9.9,-7.2,30.07,South,180,0.0,0.0,45,0.00,,,0.00,pywws,2013-01-23 04:12:00,
2013-01-22 23:17:00,10.0,-7.5,30.07,NW,315,0.0,0.0,44,0.00,,,0.00,pywws,2013-01-23 04:17:00,
2013-01-22 23:23:00,10.0,-7.5,30.07,NW,315,0.0,0.0,44,0.00,,,0.00,pywws,2013-01-23 04:23:00,
2013-01-22 23:29:00,10.0,-7.5,30.07,West,270,0.0,0.0,44,0.00,,,0.00,pywws,2013-01-23 04:29:00,
2013-01-22 23:34:00,10.6,-4.8,30.08,East,90,0.0,0.0,49,0.00,,,0.00,pywws,2013-01-23 04:34:00,
2013-01-22 23:42:00,10.6,-4.8,30.07,East,90,0.0,0.0,49,0.00,,,0.00,pywws,2013-01-23 04:42:00,
2013-01-22 23:47:00,9.9,-7.2,30.07,East,90,0.0,0.0,45,0.00,,,0.00,pywws,2013-01-23 04:47:00,
2013-01-22 23:53:00,9.1,-7.4,30.07,East,90,0.0,0.0,46,0.00,,,0.00,pywws,2013-01-23 04:53:00,
2013-01-22 23:59:00,9.1,-7.0,30.07,East,90,0.0,0.0,47,0.00,,,0.00,pywws,2013-01-23 04:59:00,